Vertical_Velocity
-2 -1 -3 -1 -0 0 -3 2 -3 2 -1 5 7 11 4 7 2 3 -1 3 3 -0 0 1 0 -0 1 0 0 1 -2 2
-3 -3 -3 3 -1 1 -1 -3 1 -9 10 2 -7 -9 -0 -3 3 7 7 4 3 7 5 -1 -0 -2 -0 -1 1 0 1 -2
-3 -1 -4 1 2 -1 -1 -1 -0 -1 -5 7 3 2 3 5 1 2 5 2 1 -2 0 -0 -1 -1 1 2 3 2 2 -2
-2 -3 -3 -3 -0 -4 -3 1 -1 -1 -0 -0 -2 8 -4 -2 -1 -3 -1 2 5 -1 0 3 2 5 2 4 2 0 -3 0
0 -3 -3 1 -3 -3 -2 -3 -0 -1 -0 2 1 1 9 10 5 -4 3 0 1 3 1 1 2 0 -3 1 -1 -0 -2 1
2 2 -4 -4 0 -2 -1 -2 -0 -1 1 -6 4 3 6 2 3 5 -1 1 1 3 4 -1 -2 0 -3 -4 1 -4 1 1
0 2 2 0 -1 -3 1 -1 0 1 -2 1 1 -5 -3 -2 -0 1 1 -1 -1 2 -4 2 4 -0 0 -1 -3 -5 -1 0
-0 1 -0 0 -0 1 -3 -3 -3 -1 -3 -2 -1 1 -1 -2 -2 2 -1 2 -6 -3 0 -2 1 -0 -3 -4 1 0 -1 2
-2 3 2 1 -1 -1 -1 -0 0 0 -1 -0 0 -1 2 -2 -3 -2 -1 4 4 1 -1 -3 -1 1 -2 0 2 -2 -3 -1
-3 4 2 0 -0 -1 0 1 -0 2 -1 -5 -1 -2 -1 -2 -0 -1 -5 -3 -0 1 -2 -2 0 -3 1 -1 -2 -3 -3 -6
-3 1 1 -1 -2 -3 -3 -3 -2 0 3 -2 -3 -4 1 0 -3 -3 -1 -4 2 1 0 -2 -5 1 -1 -3 -0 -1 -3 -1
-9 -3 2 2 2 -1 -1 -6 -5 -3 -3 -3 -1 -0 -2 1 -2 6 -6 0 -3 -0 5 -1 -2 -0 -3 0 -0 -1 -2 5
-2 -3 1 1 -1 -1 0 1 0 2 -3 -3 -0 2 4 5 -0 2 -3 -2 2 4 -2 -2 -2 2 2 0 -1 18 22 20
3 -11 2 2 3 0 -1 -2 -2 -2 -1 3 1 -0 -1 6 3 -3 -2 0 4 2 0 1 -0 0 -3 53 -0 -7 -1 -0
2 2 -1 3 3 -2 -2 -1 -0 2 2 2 1 0 -1 -0 -2 0 5 3 1 -2 -3 -4 -2 -1 0 6 2 -3 -1 1
-0 0 -3 3 3 4 -0 -3 -1 1 1 -0 -3 -0 2 3 2 3 1 -0 -2 -0 -0 2 -2 -3 3 1 1 -1 -1 -2
-2 -1 -4 -3 5 3 3 2 1 -6 -2 -0 0 0 -1 -3 -1 1 -0 1 1 -2 1 -0 3 1 -0 -3 -6 -1 1 -1
5 2 2 -2 -0 1 1 0 0 0 -1 -2 -3 -3 -1 2 1 3 3 2 2 1 1 1 1 1 -1 0 2 -1 1 -1
1 -1 3 1 -1 2 3 3 3 1 1 0 0 1 -0 2 1 0 1 1 1 1 1 -0 -1 1 1 0 0 1 -0 -0
Height
5721 5715 5710 5707 5708 5710 5712 5712 5713 5710 5708 5709 5717 5722 5730 5736 5742 5747 5753 5756 5760 5764 5766 5768 5769 5771 5771 5773 5775 5775 5775 5776
5720 5715 5709 5705 5706 5708 5711 5711 5712 5713 5712 5713 5718 5725 5730 5735 5739 5744 5750 5753 5756 5759 5761 5763 5765 5765 5766 5769 5769 5770 5770 5770
5719 5716 5711 5707 5705 5706 5709 5711 5711 5714 5715 5716 5721 5726 5731 5735 5738 5742 5746 5750 5753 5754 5756 5757 5758 5760 5761 5763 5763 5764 5764 5766
5719 5717 5713 5710 5706 5706 5709 5709 5710 5713 5716 5718 5721 5724 5728 5732 5736 5740 5743 5747 5748 5749 5749 5751 5753 5754 5755 5756 5757 5759 5761 5764
5717 5716 5715 5713 5709 5707 5707 5708 5708 5710 5713 5714 5717 5720 5724 5728 5732 5734 5739 5742 5744 5745 5744 5745 5747 5748 5749 5752 5753 5755 5757 5760
5715 5715 5714 5714 5712 5710 5708 5708 5709 5710 5710 5711 5713 5717 5722 5725 5726 5730 5733 5736 5738 5738 5739 5739 5741 5743 5746 5747 5750 5752 5753 5754
5713 5713 5712 5713 5712 5712 5711 5711 5711 5712 5712 5711 5711 5714 5717 5719 5722 5725 5728 5730 5731 5732 5733 5736 5741 5741 5746 5745 5745 5746 5748 5749
5711 5712 5711 5711 5711 5710 5711 5711 5712 5712 5712 5713 5714 5716 5717 5718 5720 5722 5726 5727 5729 5732 5734 5736 5739 5739 5740 5739 5740 5742 5743 5742
5709 5710 5711 5710 5709 5710 5709 5708 5709 5710 5712 5713 5712 5715 5717 5718 5720 5720 5723 5727 5728 5731 5732 5733 5733 5733 5735 5735 5736 5737 5737 5736
5707 5707 5708 5709 5709 5708 5708 5708 5709 5710 5711 5711 5711 5714 5715 5717 5718 5719 5722 5724 5724 5728 5729 5728 5727 5728 5728 5728 5729 5730 5727 5727
5703 5703 5705 5706 5707 5706 5707 5707 5707 5709 5710 5710 5711 5711 5713 5714 5716 5716 5717 5718 5719 5720 5721 5723 5723 5723 5723 5721 5722 5721 5718 5716
5698 5699 5702 5702 5703 5703 5703 5704 5704 5704 5704 5706 5706 5707 5709 5711 5712 5712 5714 5714 5715 5716 5717 5717 5718 5717 5715 5713 5711 5708 5705 5704
5695 5696 5697 5697 5698 5698 5698 5698 5698 5700 5699 5700 5702 5703 5705 5705 5707 5708 5709 5709 5708 5709 5710 5710 5709 5709 5707 5703 5702 5701 5696 5694
5689 5691 5692 5693 5693 5693 5693 5692 5693 5693 5694 5696 5697 5698 5698 5699 5699 5701 5701 5701 5702 5703 5702 5702 5701 5700 5697 5691 5693 5690 5688 5685
5683 5686 5687 5688 5688 5689 5688 5688 5688 5688 5689 5691 5693 5693 5693 5694 5694 5695 5696 5696 5696 5696 5695 5693 5693 5690 5689 5685 5684 5682 5679 5677
5677 5680 5682 5683 5683 5684 5683 5682 5683 5683 5683 5684 5684 5686 5687 5688 5689 5689 5689 5689 5688 5687 5685 5684 5682 5681 5680 5677 5674 5671 5669 5667
5671 5674 5676 5677 5678 5678 5677 5676 5677 5678 5678 5678 5678 5679 5680 5680 5681 5681 5680 5680 5679 5677 5676 5675 5673 5671 5668 5665 5661 5659 5656 5653
5661 5665 5668 5670 5670 5671 5670 5670 5670 5671 5673 5673 5672 5672 5673 5674 5673 5672 5672 5671 5670 5668 5666 5663 5661 5659 5656 5653 5649 5645 5642 5637
5655 5656 5659 5661 5662 5663 5664 5664 5664 5665 5664 5665 5665 5665 5665 5665 5665 5665 5663 5662 5660 5658 5655 5652 5650 5647 5645 5640 5636 5632 5628 5624